Regional Weather Roundup
Issued by NWS

Home | Current Version | Previous Version | Text Only | Print | Product List | Glossary On
Versions: 1 2 3 4 5 6 7 8 9 10 11 12 13 14 15 16 17 18 19 20 21 22 23 24 25 26 27 28 29 30 31 32 33 34 35 36 37 38 39 40 41 42 43 44 45 46 47 48 49 50
936
ASUS44 KFWD 241915
RWRTX
NORTH TEXAS HOURLY WEATHER ROUNDUP
NATIONAL WEATHER SERVICE FORT WORTH TX
200 PM CDT SUN JUL 24 2016

NOTE: "FAIR" INDICATES FEW OR NO CLOUDS BELOW 12,000 FEET WITH NO
SIGNIFICANT WEATHER AND/OR OBSTRUCTIONS TO VISIBILITY.

TXZ118-119-242000-
DALLAS/FORT WORTH METROPLEX

CITY           SKY/WX    TMP DP  RH WIND       PRES   REMARKS
DFW AIRPORT    MOSUNNY   97  68  38 VRB6      29.94F HX 102
DALLAS LOVE    MOSUNNY   98  70  40 S6        29.94F HX 105
FTW MEACHAM    SUNNY     99  67  35 S7        29.94F HX 103
DAL-EXECUTIVE  MOSUNNY   94  69  44 VRB6      29.95F HX  99
FTW-ALLIANCE   MOSUNNY   98  68  37 S6        29.94F HX 103
FTW-NAS-JRB    MOSUNNY   98  66  34 SE8       29.95F HX 101
FTW-SPINKS     MOSUNNY   97  70  41 S7        29.97F HX 103
ARLINGTON      MOSUNNY   96  70  42 E8G17     29.95F HX 102
GRAND PRAIRIE  SUNNY     97  68  38 SE6       29.96F HX 101
ADDISON        MOSUNNY   97  72  44 SE10      29.96F HX 105
MESQUITE       SUNNY     95  72  46 SE3       29.96F HX 103
LANCASTER      MOSUNNY   98  69  39 SE6       29.95F HX 104
$$

TXZ091>094-102>105-117-120-121-131>134-242000-
NORTH CENTRAL TEXAS

CITY           SKY/WX    TMP DP  RH WIND       PRES   REMARKS
SHRMAN/DENISON PTSUNNY   98  70  39 CALM      29.96F HX 105
GAINESVILLE    SUNNY     95  68  41 SE5       29.97F HX 100
BOWIE          SUNNY     97  68  39 SE7       29.97F HX 101
BRIDGEPORT     SUNNY     96  69  42 CALM      29.97F HX 101
DECATUR        SUNNY     95  64  36 SE7       29.97F HX  97
DENTON         SUNNY     96  70  42 SE8       29.95F HX 102
MCKINNEY       MOSUNNY   95  72  47 E8        29.95F HX 103
GREENVILLE     PTSUNNY   97  64  34 SE7       29.96F HX  99
ROCKWALL       MOSUNNY   96  74  49 SW10      29.95F HX 107
TERRELL        SUNNY     96  71  44 SW6       29.96F HX 103
WAXAHACHIE     MOSUNNY   96  71  44 SE6       29.97F HX 103
CLEBURNE       SUNNY     97  70  41 S8        29.97F HX 103
GRANBURY       SUNNY     98  64  32 CALM      29.96F HX 100
$$

TXZ083>090-098>101-113>116-127>130-139>142-154-155-242000-
WESTERN NORTH TEXAS

CITY           SKY/WX    TMP DP  RH WIND       PRES   REMARKS
WICHITA FALLS  SUNNY     98  67  36 VRB7      29.94F HX 102
WF-KICKAPOO    MOSUNNY  100  65  32 E12G22    29.95F HX 103
VERNON         SUNNY    100  55  22 SE6       29.95F HX  98
ABILENE        PTSUNNY   97  65  34 E8        29.98F HX  99
ABILENE-DYESS  PTSUNNY   96  67  38 E13       29.96F HX 100
CISCO          SUNNY     97  66  36 S12       30.00F HX 100
BRECKENRIDGE   SUNNY     98  62  30 S6        29.95F HAZE    HX 100
GRAHAM         MOSUNNY   99  67  34 SE6       29.94F HX 104
MINERAL WELLS  SUNNY     97  67  37 SE7       29.94F HX 101
STEPHENVILLE   SUNNY     96  62  32 SE5       30.00F HX  97
COMANCHE       SUNNY     97  66  35 E6        29.98F HX 100
BROWNWOOD      LGT RAIN  95  64  36 E9G16     29.97F HX  97
COLEMAN        MOSUNNY   94  62  34 S7        29.99S HX  95
$$

TXZ143>147-156>162-174-175-242000-
CENTRAL TEXAS

CITY           SKY/WX    TMP DP  RH WIND       PRES   REMARKS
WACO           SUNNY     97  67  37 SE6       29.94F HX 101
WACO-TSTC      SUNNY     95  68  41 SE5       29.95F HX  99
WACO-MCGREGOR  SUNNY     98  69  38 SE10      29.94F HX 104
HILLSBORO      MOSUNNY   95  69  43 E3        29.96F HX 100
CORSICANA      SUNNY     96  71  44 CALM      29.96F HX 103
MEXIA          MOSUNNY   96  71  44 S6        29.95F HX 103
HEARNE         MOSUNNY   96  73  47 CALM      29.95F HX 105
CAMERON        SUNNY     97  70  40 SE8       29.94F HX 103
TEMPLE         SUNNY     95  71  45 E8        29.95F HX 102
KILLEEN        MOSUNNY   95  66  37 CALM      29.95F HX  98
KILLEEN-SKYLRK SUNNY     96  69  41 VRB5      29.95F HX 102
FORT HOOD      MOSUNNY   95  69  42 VRB3      29.93F HX 100
GATESVILLE     SUNNY     97  66  36 CALM      29.97F HX 100
HAMILTON       SUNNY     97  65  34 SE10      29.99F HX  99
LAMPASAS       SUNNY     96  68  39 SE7       29.96F HX 100
$$

TXZ095>097-106>112-122>126-135>138-148>153-164>167-242000-
EAST TEXAS

CITY           SKY/WX    TMP DP  RH WIND       PRES   REMARKS
PARIS          MOSUNNY   99  68  36 S7        29.96F HX 104
SULPHUR SPRNGS MOSUNNY   96  68  40 CALM      29.97F HX 101
MOUNT PLEASANT SUNNY     97  67  38 S3        29.96F HX 101
GILMER         PTSUNNY   92  73  53 CALM      29.96F HX 101
MINEOLA        SUNNY    N/A N/A N/A MISG        N/A
TYLER          SUNNY     97  70  41 VRB6      29.96F HX 103
LONGVIEW       MOSUNNY   94  74  52 VRB3      29.95F HX 104
MARSHALL       SUNNY     92  73  53 CALM      29.98F HX 101
ATHENS         SUNNY     93  72  49 SE6       29.95F HX 100
PALESTINE      CLOUDY    91  74  57 CALM      29.98F HX 100
JACKSONVILLE   MOSUNNY   94  70  45 CALM      30.00F HX 100
HENDERSON      CLOUDY    93  68  44 CALM      29.97F HX  97
CENTER         CLEAR     97  70  40 CALM      29.97F HX 103
NACOGDOCHES    MOSUNNY  N/A N/A N/A SW5       29.94F
LUFKIN         SUNNY     94  70  45 CALM      29.96F HX 100
$$

SUPPLEMENTAL OBSERVATIONS (CENTRAL)

CITY           SKY/WX    TMP DP  RH WIND       PRES   REMARKS
DENISON DAM      N/A     95  70  43 NW1         N/A  HX 101
CADDO GRASSLND   N/A    100  68  34 NW3         N/A  HX 106
PAT MAYSE LAKE   N/A     95  70  43 SE3         N/A  HX 101
GREENVILLE       N/A    100  70  37 W3          N/A  HX 107
CEDAR HILL       N/A     99  72  41 SE6         N/A  HX 107
LAKE LIMESTONE   N/A     97  72  44 NE3         N/A  HX 105
MCGREGOR         N/A     99  68  36 S8          N/A  HX 104
TEMPLE           N/A     97  66  36 SE8         N/A  HX 100
$$

SUPPLEMENTAL OBSERVATIONS (WEST)

CITY           SKY/WX    TMP DP  RH WIND       PRES   REMARKS
MILLERS CREEK    N/A    100  63  28 SE3         N/A  HX 102
POSSUM KINGDOM   N/A    100  64  30 SE7G15      N/A  HX 103
LBJ GRASSLAND    N/A     99  70  39 S6          N/A  HX 105
GRANBURY         N/A     99  64  32 N2G15       N/A  HX 101
COMANCHE         N/A     99  64  32 SE7G17      N/A  HX 101
HAMBY            N/A     99  64  32 SE7         N/A  HX 101
IVIE RESERVOIR   N/A     99  63  30 CALM        N/A  HX 100
COLORADO BEND    N/A     97  61  30 S8          N/A  HX  97
$$

SUPPLEMENTAL OBSERVATIONS (EAST)

CITY           SKY/WX    TMP DP  RH WIND       PRES   REMARKS
TEXARKANA        N/A     93  77  59 SW1         N/A  HX 107
LINDEN           N/A     97  73  46 N2          N/A  HX 107
CADDO LAKE       N/A     97  73  46 W3          N/A  HX 107
GILMER           N/A     97  73  46 NE3         N/A  HX 107
HENDERSON        N/A     97  70  41 W5          N/A  HX 103
LUFKIN           N/A     97  70  41 MISG        N/A  HX 103
N SABINE NF      N/A     97  70  41 MISG        N/A  HX 103
S SABINE NF      N/A     93  72  49 N5          N/A  HX 100
$$

SUPPLEMENTAL OBSERVATIONS ARE A COLLECTION OF AUTOMATED INSTRUMENTS
THAT ARE MAINTAINED BY A VARIETY OF FEDERAL AND STATE AGENCIES.
CERTAIN ELEMENTS...SUCH AS HUMIDITY VALUES AND SUSTAINED WIND
SPEEDS...MAY BE APPROXIMATED.





USA.gov is the U.S. government's official web portal to all federal, state and local government web resources and services.